RH
101 100 100 101 100 100 100 100 100 100 100 100 100 100 101 100 100 100 100 101 100 101 100 100 99 94 97 98 97 100 92 72 58 78 84 40 7 9 13 14 20 24 23 19 19 19 17 21 23 22 23 24 28 29 25 25 21 16 27 30 26 25 22 24 20 14 14 12 11 10 10 10 10 8 8 31 57 72 87 92 94 95 93 92 88 92 99 100
100 100 100 100 100 100 100 100 100 100 100 100 100 100 100 100 100 100 100 100 100 100 100 100 96 96 100 97 98 99 87 74 83 96 63 15 9 13 12 19 25 25 22 20 19 18 19 23 23 23 26 26 26 23 21 20 16 20 30 29 26 26 22 20 15 13 12 11 12 10 11 9 9 8 9 23 40 69 96 97 98 100 98 99 97 99 100 100
100 100 100 100 101 100 100 100 100 100 100 100 100 100 100 100 100 100 100 100 101 100 99 99 98 101 99 97 102 94 86 87 91 79 36 12 14 10 13 22 23 24 24 21 19 16 17 19 17 20 25 27 27 21 18 18 15 20 24 23 25 23 21 17 14 13 12 11 11 9 11 9 9 8 9 16 28 63 92 95 99 101 100 100 99 100 100 101
100 100 100 100 100 99 100 100 100 101 100 100 100 100 100 100 101 100 101 100 100 100 99 100 100 100 97 101 97 84 89 85 63 44 26 20 15 8 13 18 23 26 26 25 21 15 14 16 15 20 23 27 28 19 18 19 15 17 18 21 23 19 16 15 13 13 13 11 10 10 10 9 9 8 9 14 20 35 53 72 91 97 101 101 99 100 98 100
100 101 100 100 99 99 101 100 100 100 99 101 100 100 100 100 100 99 101 100 100 101 100 100 100 99 98 93 80 82 89 59 32 27 25 26 16 11 13 16 24 24 28 29 19 13 13 14 18 24 26 29 26 18 21 19 14 15 16 18 18 15 14 13 13 12 12 11 9 9 9 9 8 8 9 11 12 11 22 52 82 93 96 98 98 97 96 97
100 100 100 101 99 99 100 100 101 101 101 100 96 98 101 100 100 99 100 99 100 100 100 100 98 99 92 77 73 84 77 40 26 26 21 25 18 12 14 21 26 25 32 29 14 13 16 20 24 28 28 29 25 21 23 16 12 16 17 16 14 14 13 11 11 11 12 10 9 9 9 8 8 8 10 16 19 19 33 60 81 90 89 91 94 93 96 98
100 100 100 99 98 99 99 101 99 90 86 84 79 83 94 99 99 101 100 98 100 99 100 100 97 98 84 74 80 85 79 52 27 21 21 23 20 14 14 22 27 29 34 26 13 17 23 26 29 30 26 23 22 21 20 14 11 15 16 14 12 12 12 11 10 11 11 9 9 9 8 7 9 6 10 40 61 61 69 80 85 88 87 89 92 92 95 96
100 100 100 99 99 97 97 100 87 62 57 61 58 62 72 78 80 89 97 98 101 100 100 98 98 100 79 75 87 81 81 57 19 19 26 22 20 17 15 17 22 27 29 22 13 18 25 28 29 29 26 20 17 17 14 12 12 14 14 12 11 10 10 11 10 12 12 10 9 9 8 7 10 8 22 66 88 85 86 87 87 88 89 90 91 93 94 95
100 99 98 99 98 96 99 97 70 45 47 52 52 51 50 54 59 66 74 82 92 97 101 99 97 94 76 85 92 60 47 35 17 23 25 22 20 19 20 17 20 24 22 17 12 17 23 27 30 27 25 20 13 13 12 11 13 13 11 10 10 9 10 9 10 12 11 11 9 8 10 9 10 10 39 84 91 87 90 89 91 91 92 93 92 94 94 96
99 97 97 99 99 97 92 74 50 44 50 49 50 47 42 47 54 57 61 67 78 86 94 96 92 87 80 90 80 39 24 24 22 24 17 19 20 19 24 21 22 23 18 17 16 21 25 28 30 24 22 20 14 14 12 10 13 13 12 12 11 10 10 10 10 11 10 11 9 9 8 10 11 5 40 91 91 89 95 93 94 92 94 94 93 94 93 95
99 98 99 99 92 79 63 48 45 51 49 43 44 42 40 44 50 55 57 63 78 84 89 94 89 86 89 93 76 38 22 22 20 18 13 16 19 18 20 20 23 20 16 19 20 20 23 25 26 21 22 20 15 14 13 12 12 13 14 13 14 13 11 10 10 11 12 10 9 11 6 10 12 2 44 95 91 90 97 97 96 94 96 95 93 95 94 95
91 99 98 86 70 54 42 42 45 46 40 38 39 35 34 38 42 46 46 57 79 86 91 97 92 91 93 94 81 41 17 22 19 14 14 13 15 13 12 14 17 17 16 19 21 16 18 22 21 22 23 18 15 14 13 13 12 13 14 13 15 15 12 10 11 11 10 10 9 11 7 13 10 6 54 95 90 94 96 94 97 95 97 96 96 97 95 97
65 79 80 64 48 40 34 32 33 34 33 34 33 26 25 30 35 40 44 60 80 87 95 98 92 94 89 74 55 25 13 22 19 15 15 11 11 11 10 12 12 13 12 13 17 13 14 19 20 23 22 17 16 14 12 12 12 13 12 13 16 17 16 10 10 11 8 10 10 9 11 16 11 25 74 94 89 96 95 93 95 95 97 96 97 97 98 99
38 48 55 47 36 30 25 20 19 23 23 23 21 19 24 30 39 50 58 74 87 91 97 95 88 94 94 65 30 18 22 26 24 20 14 11 13 12 10 12 13 12 10 11 12 12 15 18 18 19 16 15 13 10 14 17 17 16 13 21 22 17 19 14 11 11 8 10 10 7 14 15 17 51 87 90 90 95 94 94 92 94 98 97 98 98 99 100
25 28 36 38 32 24 19 15 12 13 13 14 15 19 27 32 45 59 70 84 92 94 95 91 88 94 98 70 29 22 32 34 32 25 15 14 14 14 13 11 14 14 12 14 13 14 17 15 14 15 13 14 16 16 21 24 27 24 16 28 34 19 19 18 13 14 9 9 10 7 15 15 24 64 87 84 91 96 95 96 94 97 98 97 99 98 98 99
22 22 24 29 30 21 16 14 11 11 11 13 15 21 26 33 50 65 77 89 95 98 94 87 89 90 82 58 30 23 32 35 31 25 18 14 12 14 15 12 14 15 15 17 16 16 16 13 14 16 15 13 20 27 28 35 47 42 26 26 33 24 21 20 13 15 11 7 10 8 15 17 18 52 81 84 90 96 98 100 98 99 98 97 98 97 97 98
21 22 21 23 27 24 19 16 15 16 15 18 21 24 31 42 60 73 83 89 94 97 88 81 87 84 60 36 27 25 28 27 22 24 20 14 13 14 12 15 17 14 15 14 13 15 12 13 15 18 32 36 34 34 30 37 47 50 46 36 34 30 23 23 19 16 12 9 11 8 12 17 18 43 73 83 87 95 100 100 100 99 97 97 95 96 97 98
19 20 21 20 23 25 23 20 21 21 22 28 29 29 39 55 73 84 85 85 90 85 76 78 76 61 39 24 26 27 23 20 17 21 19 14 15 14 13 16 15 13 14 12 13 15 10 20 29 23 39 50 41 38 38 39 36 35 41 40 42 38 26 25 24 18 15 11 11 11 11 16 33 55 69 73 77 90 98 97 98 98 97 96 95 97 96 98
18 19 19 19 20 22 25 24 23 23 26 34 35 42 59 74 84 87 82 81 80 59 46 63 58 32 22 23 25 21 17 18 17 17 17 17 16 15 16 12 13 14 14 17 18 19 14 21 33 25 30 38 30 32 34 34 31 22 27 37 39 33 25 24 21 19 20 16 14 16 12 18 46 64 62 64 70 83 94 95 96 96 96 96 95 97 97 97
19 18 17 19 19 19 23 26 24 24 29 35 40 52 64 69 73 77 84 87 76 47 29 47 50 30 24 25 21 19 20 19 16 14 15 16 14 16 16 11 15 16 18 28 25 24 22 18 27 28 30 36 35 35 29 27 31 25 29 37 34 29 25 20 17 21 27 23 20 24 21 27 52 61 55 62 73 86 95 96 98 97 96 97 96 97 97 95
17 17 18 17 17 18 20 26 28 28 31 38 46 48 44 45 48 53 69 75 65 53 41 39 41 34 27 23 21 22 25 24 21 18 14 14 14 14 16 15 17 18 25 35 29 24 24 23 30 33 32 36 44 51 42 37 37 32 34 31 26 30 25 19 23 27 33 31 25 31 28 25 40 49 52 62 69 82 94 95 97 97 96 95 95 96 95 93
16 17 18 14 17 17 16 23 29 30 31 40 53 52 41 37 34 32 44 51 47 50 50 42 38 36 29 25 27 25 26 32 31 24 15 13 14 14 17 19 20 25 31 32 27 23 25 30 32 33 37 34 42 56 49 44 42 35 37 31 26 31 26 30 40 39 39 38 29 29 26 27 45 49 49 59 61 71 86 91 91 93 95 94 94 96 94 93
16 16 16 16 16 13 15 18 20 28 35 43 51 51 40 32 31 31 36 44 42 40 47 49 44 41 37 32 29 29 32 36 34 27 16 12 15 16 16 19 21 24 27 26 27 26 29 39 37 38 43 32 33 49 43 37 40 37 32 26 28 34 28 31 43 44 43 40 34 37 38 45 59 48 37 49 58 67 78 82 84 85 88 89 89 91 91 92
16 15 16 16 13 13 15 12 16 31 39 41 41 35 33 35 39 37 37 46 46 39 40 40 39 40 38 30 25 32 36 31 29 25 15 13 16 16 16 19 21 20 22 30 35 30 26 33 37 39 46 38 30 41 43 31 36 49 43 30 31 34 28 27 39 49 52 47 44 52 50 48 54 43 33 43 52 65 76 77 78 78 77 78 81 87 86 87
16 16 16 14 15 15 10 13 30 40 36 32 29 30 36 42 43 37 42 56 54 48 41 30 33 34 27 25 24 29 31 25 24 20 13 14 14 16 17 16 18 21 22 28 33 30 24 25 25 24 36 43 33 41 51 37 33 48 52 45 40 38 35 36 47 56 53 43 39 44 41 43 57 48 35 39 44 56 73 78 78 76 75 75 80 86 83 82
17 16 15 15 16 12 11 27 40 37 30 27 29 39 41 39 42 37 51 77 70 54 42 31 33 29 21 26 24 22 27 25 21 16 13 13 12 15 17 16 19 22 25 29 30 28 27 29 28 25 35 45 39 38 46 44 35 32 43 51 50 50 45 39 47 52 45 39 41 49 48 48 58 46 32 39 44 52 66 74 76 75 77 78 77 81 80 81
18 17 16 16 16 17 22 30 32 30 30 29 34 40 33 32 39 35 51 77 68 50 38 28 28 24 19 23 20 23 32 28 19 15 14 13 12 12 17 22 19 17 26 31 30 32 32 31 33 36 40 42 38 32 36 45 37 28 45 54 47 46 44 43 47 44 42 40 45 62 56 40 49 49 40 41 43 52 63 66 69 72 76 78 75 75 77 79
16 16 18 18 16 22 28 29 37 41 36 31 31 32 31 33 36 42 57 53 35 33 31 22 19 17 16 18 19 24 29 23 18 18 15 12 12 12 17 22 18 19 26 23 30 44 37 26 33 39 34 31 33 36 40 39 29 34 53 53 41 41 48 58 53 45 53 42 37 63 52 31 55 64 47 42 41 47 57 58 59 65 72 76 74 73 74 78
16 15 19 21 17 21 32 44 46 35 30 26 22 27 35 35 34 51 63 41 22 26 23 18 19 16 16 18 19 23 21 17 18 19 15 13 13 14 17 20 21 20 19 21 34 44 32 25 37 37 28 31 37 40 43 35 25 36 48 43 43 50 57 65 56 49 63 51 42 66 53 31 59 71 51 40 38 40 47 52 51 54 65 73 73 72 74 80
17 14 18 23 24 26 36 42 28 16 21 17 17 30 34 42 58 64 58 40 30 30 21 18 21 17 17 19 18 22 20 17 18 16 15 15 15 14 14 18 24 25 33 42 37 33 34 36 38 30 25 35 37 36 38 34 27 32 39 34 34 50 63 73 73 57 55 55 55 70 60 38 53 69 59 43 37 41 45 50 52 51 61 74 73 70 75 79
18 15 20 24 27 32 35 29 16 18 21 7 15 35 35 50 76 71 53 40 35 35 26 21 21 19 19 19 19 21 19 18 18 17 19 18 15 18 18 19 27 36 51 53 37 37 39 28 27 27 26 27 21 22 26 30 34 33 39 39 30 43 57 66 73 57 51 63 64 74 69 44 46 58 56 48 45 49 49 53 63 63 67 77 75 69 74 77
19 17 20 20 23 29 30 20 13 19 15 4 26 52 51 53 63 66 60 44 36 38 31 26 25 22 20 20 20 20 19 20 19 18 22 21 22 23 19 25 33 33 43 46 39 42 36 27 30 29 26 20 14 20 22 27 38 31 38 49 40 44 50 56 66 57 59 64 55 67 62 41 53 59 48 52 54 56 59 58 66 72 74 78 75 70 74 77
22 21 18 16 19 21 19 13 11 15 9 11 41 68 71 63 60 66 63 43 36 36 31 29 25 21 21 22 24 20 19 23 21 19 21 22 27 25 18 31 37 30 44 52 41 39 39 42 42 28 24 22 17 25 24 25 31 23 31 43 41 50 53 59 70 58 55 57 51 63 53 41 62 61 48 59 60 63 72 70 72 76 75 75 72 72 76 78
22 23 17 16 16 13 12 11 12 15 13 24 54 70 66 64 68 69 62 50 41 31 27 27 22 19 20 23 26 21 20 25 21 20 23 23 28 30 24 26 28 35 52 50 40 46 47 45 42 30 25 23 19 25 31 32 30 27 33 32 33 54 56 52 61 54 50 54 52 51 42 48 63 53 52 64 62 70 78 77 83 83 81 80 76 77 79 81
21 21 21 20 14 10 10 10 12 16 25 45 64 67 59 59 67 69 63 54 39 28 26 22 19 22 24 27 28 20 20 26 23 22 27 29 32 38 33 25 26 37 44 42 43 45 38 39 46 36 23 20 16 18 25 28 27 31 34 26 27 45 53 48 52 63 66 55 49 45 42 60 66 48 53 66 65 74 79 79 85 86 85 85 83 84 84 84
24 23 26 21 14 13 9 8 13 19 38 55 54 55 59 56 56 54 47 38 30 27 27 22 22 27 30 34 33 24 19 25 28 27 29 31 31 34 31 27 28 27 31 47 55 44 34 41 47 33 20 18 15 16 19 18 25 32 25 24 31 36 46 50 48 64 70 52 52 54 44 55 60 46 51 65 70 75 80 84 86 85 85 86 88 90 87 88
35 42 46 33 24 26 20 12 15 27 46 54 52 64 67 53 46 41 32 27 26 25 25 30 32 29 29 36 39 29 20 28 31 28 37 41 37 38 33 27 27 21 23 39 45 45 47 48 44 29 15 16 17 17 20 16 22 29 22 26 31 28 43 57 55 62 60 50 59 59 47 50 59 59 59 62 67 71 79 86 85 84 83 83 89 89 88 94
57 69 65 43 34 41 33 19 24 46 60 58 70 88 74 47 39 35 29 26 26 23 25 34 36 29 26 33 40 28 20 36 37 28 42 45 34 40 36 27 26 20 21 28 29 38 46 43 43 35 19 21 25 25 28 26 19 19 22 26 25 31 45 45 46 56 53 52 59 55 53 54 57 69 67 58 65 72 80 87 87 87 86 86 90 88 88 94
74 77 57 38 40 45 36 29 39 58 63 62 78 84 65 52 45 37 35 32 28 29 33 36 34 31 28 25 31 27 21 38 41 32 43 42 31 37 34 27 26 20 23 26 26 45 54 41 38 37 25 24 33 37 37 34 24 18 24 30 33 50 57 39 41 54 47 51 61 55 56 61 67 76 66 59 71 79 85 92 91 91 91 88 89 87 87 90
76 60 39 36 46 47 38 39 53 63 62 68 82 74 58 55 48 38 37 33 28 30 36 36 30 32 33 21 23 27 22 29 33 30 38 40 34 35 33 28 23 20 26 26 30 53 53 34 39 48 38 32 36 37 31 29 27 23 27 34 38 44 43 34 43 53 49 58 70 61 55 65 80 81 65 62 74 81 87 93 92 92 92 89 87 86 88 87
80 56 43 42 48 53 49 49 62 72 73 73 74 66 55 50 44 41 37 32 31 27 27 29 26 30 35 26 25 26 20 23 25 24 29 32 31 32 30 26 20 20 28 29 36 50 43 37 53 56 40 34 35 30 25 23 23 25 27 33 45 50 44 40 44 54 62 67 69 64 59 66 79 81 73 70 74 80 86 88 89 90 87 85 84 83 85 86
77 58 48 42 47 56 59 66 71 69 71 72 62 52 47 43 41 39 31 29 31 26 22 23 25 28 29 28 30 27 25 30 26 23 27 26 27 28 23 22 22 26 34 32 30 46 59 59 55 46 34 30 29 26 25 20 23 34 33 36 54 59 56 59 58 59 60 58 63 68 64 69 81 83 77 71 71 78 81 83 87 87 84 83 84 83 84 84
72 64 48 38 45 53 58 71 73 61 61 64 51 37 37 37 35 32 28 28 28 25 24 23 25 28 23 23 28 26 32 37 27 25 30 26 26 28 27 28 27 30 38 36 28 42 61 54 40 44 52 46 35 30 30 30 34 37 36 44 50 41 49 69 73 71 66 59 61 58 53 69 84 81 75 73 73 74 74 79 85 86 84 84 85 85 81 80
80 82 66 44 37 46 62 72 76 77 74 60 44 36 35 31 30 29 28 29 30 31 32 28 28 30 26 28 33 34 39 40 31 32 35 34 33 32 35 37 32 32 35 34 35 37 38 40 44 50 54 51 41 33 35 40 40 34 37 48 46 40 53 62 61 72 70 59 61 57 57 75 79 72 73 74 75 74 71 73 78 82 83 82 84 81 76 77
81 82 81 66 47 51 70 72 69 77 75 59 47 43 41 36 32 30 30 34 36 38 43 40 35 36 37 42 48 48 47 42 40 44 46 47 42 31 33 38 38 47 52 50 57 52 41 57 75 66 54 55 53 46 44 44 43 42 45 51 52 52 51 41 47 63 55 45 59 65 67 73 70 69 75 75 75 74 71 69 70 74 78 78 79 76 74 77
81 82 88 87 77 75 77 69 62 64 65 65 57 46 47 49 40 31 32 37 37 39 45 44 43 50 53 55 59 59 57 51 49 55 57 58 51 37 34 35 35 50 61 57 62 67 61 68 80 75 64 62 61 54 46 43 45 45 42 48 59 62 60 57 58 57 49 47 56 61 66 70 68 72 76 77 77 73 71 72 69 70 74 75 74 72 71 73
80 85 86 86 88 90 82 68 62 59 58 64 59 49 51 52 45 39 37 38 39 43 49 43 44 56 61 62 65 64 65 61 55 58 59 56 57 49 38 31 29 43 55 49 54 71 70 57 59 67 61 53 51 45 37 39 44 43 41 46 53 58 66 67 52 44 50 55 54 58 67 68 64 65 69 73 76 73 71 71 67 68 71 71 71 72 70 70
73 77 80 79 82 89 85 72 62 53 51 54 50 48 53 52 50 49 45 43 40 44 56 52 45 49 52 59 67 66 69 70 62 62 60 53 59 58 46 38 34 36 44 45 52 71 72 50 46 59 57 51 52 47 42 46 48 51 53 50 47 51 56 50 41 49 59 56 55 61 64 61 55 55 59 64 69 72 71 69 68 68 67 68 69 67 65 65
74 80 85 83 81 81 78 74 66 54 52 59 54 47 52 55 53 45 44 55 52 45 57 59 48 44 44 53 68 70 69 68 63 63 60 55 61 60 52 51 42 32 37 45 51 65 66 48 50 67 63 56 60 54 45 48 53 54 56 58 57 57 55 47 47 61 65 61 66 69 65 61 55 55 60 60 62 70 70 69 72 69 68 70 66 64 65 63
75 79 85 87 79 70 66 69 75 67 60 65 62 48 46 53 54 44 40 54 58 51 55 56 48 45 41 46 60 62 59 61 59 54 53 55 61 57 50 50 43 32 37 43 44 55 58 46 61 85 69 51 64 64 52 56 59 51 55 69 70 59 57 60 62 66 65 59 64 69 67 61 53 55 63 61 61 67 65 67 73 72 74 73 63 61 66 66
71 66 77 86 73 62 62 60 69 78 76 76 70 54 45 47 50 49 44 43 48 53 58 55 47 45 43 46 51 50 55 66 64 53 51 52 53 50 46 46 43 37 41 44 42 56 64 51 63 86 68 48 60 64 61 70 68 58 62 71 68 61 62 67 70 71 65 57 59 67 65 57 54 59 64 62 64 67 66 70 74 73 77 80 77 73 69 70
81 71 79 90 73 61 63 56 58 75 83 83 74 57 48 45 45 55 57 45 39 47 56 56 50 47 45 44 42 37 43 55 54 46 46 45 43 43 41 40 39 34 37 43 44 57 70 57 56 74 66 53 64 70 73 78 68 63 69 66 64 69 70 70 73 75 73 69 68 67 62 59 64 66 64 61 62 62 64 68 70 73 77 78 83 86 81 80
Wind_Speed
15 14 14 14 14 14 13 13 13 13 13 12 13 12 12 12 12 12 12 12 12 12 12 12 12 13 13 13 14 15 17 19 19 15 9 11 11 10 7 8 8 7 8 10 8 3 2 3 3 2 3 2 1 1 2 3 2 2 3 2 3 3 4 4 5 4 3 4 7 6 6 3 5 6 2 5 8 6 7 7 5 7 9 9 16 24 26 27
15 15 14 14 14 14 13 13 13 13 13 13 12 12 13 12 12 11 11 11 11 12 11 12 12 12 12 12 13 14 18 19 17 15 14 11 8 7 11 13 8 6 8 7 7 4 3 3 2 4 4 1 1 1 1 1 2 3 3 2 4 4 5 5 5 4 2 5 8 6 4 4 4 4 2 1 1 4 8 6 6 10 12 14 19 22 23 27
16 15 15 15 15 14 14 14 13 13 13 13 12 12 12 12 12 12 11 11 11 11 11 11 11 11 12 12 12 14 16 14 9 10 8 6 8 11 14 15 10 8 7 4 4 3 4 3 2 4 3 1 2 1 1 1 2 2 3 3 6 5 5 5 6 7 6 6 7 7 5 6 6 3 2 1 1 3 5 3 4 8 11 14 14 16 21 23
16 15 15 15 14 14 14 14 14 13 13 13 13 13 12 12 12 12 12 11 11 10 11 11 11 11 11 11 12 12 11 6 3 5 2 3 5 9 16 17 12 11 7 3 2 2 3 2 3 4 4 1 3 1 1 3 2 1 3 4 6 4 4 7 8 8 7 5 4 7 6 8 6 0 2 3 1 2 3 6 6 11 15 15 13 13 16 16
16 16 15 15 14 14 15 15 14 14 13 13 13 13 12 12 11 12 12 11 11 11 11 10 10 11 10 10 10 10 6 2 2 4 2 3 3 8 16 17 14 12 7 5 3 3 3 3 4 4 3 1 3 2 2 5 2 1 3 6 6 3 3 9 7 6 6 3 3 6 6 5 3 2 2 6 3 4 5 7 9 16 19 17 15 14 13 12
16 16 15 15 15 15 15 14 14 14 13 13 13 13 12 12 12 12 11 11 11 10 10 9 10 10 10 10 8 5 1 0 5 4 2 3 4 7 14 17 15 11 8 7 4 4 3 4 5 2 2 1 1 2 4 4 3 2 4 4 6 5 5 8 6 5 4 2 4 4 4 3 4 5 3 6 4 6 4 6 11 15 18 18 15 14 13 12
16 16 15 15 15 15 15 14 14 14 13 13 13 13 12 12 12 11 11 11 10 10 9 8 8 9 10 8 3 1 2 5 9 5 4 5 6 8 14 17 15 11 9 8 4 4 4 5 3 3 3 1 3 5 5 3 3 5 4 5 7 6 7 9 9 8 4 4 7 2 4 5 4 6 1 3 2 2 3 9 13 13 15 16 14 13 13 12
16 16 15 15 15 15 14 14 14 14 13 13 13 12 12 12 11 11 11 10 10 9 8 7 7 8 9 6 1 2 1 7 8 5 6 7 8 10 14 17 16 12 12 12 8 6 4 6 3 3 2 3 3 4 5 1 0 5 6 5 5 5 8 11 10 10 7 7 6 1 3 8 9 3 3 3 3 5 8 13 14 13 14 13 12 12 11 10
16 16 15 15 15 14 14 14 14 14 13 13 13 13 12 11 10 10 10 9 9 8 7 7 6 6 7 5 2 2 3 5 4 4 6 8 9 11 14 15 17 15 12 11 10 8 5 4 4 4 3 4 3 3 3 1 2 5 7 5 4 7 9 9 9 9 8 5 3 2 6 10 7 2 3 4 2 7 9 13 14 15 14 12 11 12 11 11
17 16 15 15 14 14 14 13 13 13 13 12 13 12 12 11 10 10 10 9 8 7 7 5 4 4 5 3 2 1 4 3 2 3 5 8 10 11 13 13 16 17 12 9 11 10 5 5 5 4 3 2 2 3 2 4 4 5 4 5 7 9 9 6 7 8 5 4 6 7 7 8 4 3 1 2 5 9 11 12 11 13 13 12 11 10 10 10
18 16 15 15 14 14 13 13 13 12 12 13 13 12 11 11 11 11 10 9 8 7 5 3 3 2 2 2 3 3 5 3 2 3 4 8 11 11 14 14 15 18 13 8 10 12 7 6 5 3 1 2 1 3 3 4 3 4 3 5 8 7 7 5 6 6 3 3 6 8 4 5 2 3 6 6 8 9 12 13 10 11 11 11 12 10 8 8
18 17 16 15 14 13 12 12 12 12 12 12 12 12 11 10 10 10 9 8 7 6 4 2 1 1 1 2 5 9 4 3 3 3 5 8 9 9 11 13 14 18 15 8 8 14 14 8 5 3 2 1 1 3 3 4 2 4 1 3 8 7 6 7 5 5 5 2 5 7 3 6 3 4 7 10 9 9 12 13 11 10 9 9 10 8 7 7
20 19 17 15 13 12 12 11 11 11 12 12 12 11 10 10 9 9 8 7 5 4 2 1 2 1 2 1 8 9 6 5 6 6 7 7 7 6 8 10 11 15 15 10 9 14 16 11 6 4 4 2 3 4 1 2 2 4 2 1 5 7 6 5 2 1 2 3 6 6 3 6 5 6 8 11 11 11 11 13 12 10 9 8 8 7 6 7
22 21 19 16 13 12 11 11 10 11 11 11 11 10 10 9 8 8 8 6 5 3 2 1 1 2 2 6 11 9 6 7 9 11 8 8 7 5 9 11 9 12 14 13 14 13 10 8 6 3 3 4 4 4 3 5 3 3 2 2 2 2 5 7 2 1 2 4 6 7 4 6 4 6 10 11 12 15 13 13 13 11 8 7 6 7 7 6
22 22 21 18 14 12 11 10 10 10 10 10 10 10 10 9 8 8 6 6 4 2 3 2 3 2 1 9 12 7 2 5 12 15 12 11 10 5 9 12 11 12 13 15 16 13 7 4 4 2 4 2 2 3 4 5 3 3 2 3 3 0 5 9 5 5 5 6 4 8 4 4 4 9 11 10 11 14 15 14 13 11 9 7 6 6 6 5
22 23 23 20 16 13 11 10 10 9 10 9 9 9 9 9 8 5 5 4 2 3 4 2 3 3 1 6 6 4 4 6 9 13 15 15 13 8 7 10 10 11 12 14 15 14 9 4 3 2 1 2 4 4 3 4 4 3 2 2 4 2 3 7 5 6 8 5 2 5 5 2 3 9 10 11 12 12 14 14 12 10 8 8 7 6 6 5
22 22 23 22 19 14 12 11 10 9 9 8 9 9 8 8 5 3 2 1 1 4 6 1 1 2 4 7 5 5 5 6 7 12 18 18 15 10 6 5 5 5 6 10 10 8 5 2 1 1 2 3 3 4 3 3 3 4 2 0 3 3 2 4 6 6 3 4 4 4 5 3 5 5 7 8 9 10 12 13 11 9 7 6 6 6 6 7
22 22 22 23 22 17 13 12 11 9 8 8 8 9 7 5 3 1 1 4 4 3 3 2 2 0 4 7 4 4 5 5 7 12 18 19 17 14 7 3 2 1 2 5 4 2 1 1 2 1 3 4 3 5 2 3 3 2 2 1 3 3 2 4 5 6 4 2 5 3 3 4 6 2 6 5 6 6 6 9 8 7 8 7 7 7 7 8
22 22 21 22 22 21 17 13 12 11 9 8 8 8 4 1 1 2 4 5 4 2 3 3 3 1 3 5 5 7 10 8 6 10 16 18 16 13 7 2 2 4 2 1 2 1 1 2 3 1 2 2 2 5 6 7 6 5 4 3 3 3 4 6 6 5 3 2 3 4 4 2 2 5 7 6 6 5 3 5 6 6 7 7 7 7 8 8
23 22 22 21 21 22 20 15 13 12 11 10 7 5 2 2 2 1 2 3 5 6 6 6 8 4 6 7 5 7 10 8 5 9 15 19 13 7 4 0 3 3 2 3 2 2 3 2 2 4 6 7 7 7 7 4 5 4 2 3 5 4 4 6 5 6 1 5 1 2 6 5 6 8 8 7 6 6 7 6 7 8 7 8 9 8 8 7
23 23 22 21 21 21 21 18 14 12 13 10 6 2 1 1 1 2 2 5 8 10 11 10 11 9 10 10 4 2 5 5 4 5 12 16 11 6 2 1 3 1 3 3 2 2 3 3 7 9 9 8 5 5 4 3 3 3 3 4 4 3 5 6 4 7 4 5 3 2 7 4 4 5 5 9 9 8 10 11 10 10 8 7 8 8 7 5
23 23 23 22 21 20 20 19 15 13 13 9 4 2 3 4 5 4 1 4 9 11 14 12 10 10 13 15 10 1 1 2 6 7 7 11 8 5 3 3 5 4 2 2 1 2 2 3 10 9 5 3 3 5 4 1 2 2 2 2 2 2 4 6 5 7 5 5 1 3 5 1 3 4 5 6 9 8 11 13 12 12 10 9 9 9 9 7
23 23 24 22 22 21 19 19 17 14 11 7 5 5 5 12 12 8 3 3 7 7 9 10 8 8 9 12 10 6 4 4 4 7 7 11 5 5 5 4 5 3 1 3 4 2 1 7 9 5 6 5 2 2 4 1 1 2 2 2 2 3 1 3 5 7 6 4 1 3 4 3 5 3 5 5 2 1 5 8 7 9 10 10 10 11 11 11
23 23 23 23 23 21 20 21 17 9 8 10 10 8 12 19 17 8 3 2 5 4 5 9 8 6 8 7 7 10 4 4 5 4 8 12 4 3 5 4 4 2 2 4 6 5 6 10 5 3 5 6 3 2 5 3 3 3 3 4 3 3 2 3 5 5 4 5 4 5 5 5 5 2 3 4 3 3 3 4 4 5 4 3 5 8 10 11
24 23 23 24 23 22 22 19 8 4 11 12 9 11 16 19 19 7 1 2 4 5 4 5 5 5 8 5 8 10 2 3 6 5 9 13 7 4 3 3 4 3 4 5 6 4 9 8 2 1 1 4 4 4 5 7 3 4 3 6 7 5 4 3 4 5 4 5 4 5 5 4 5 2 4 3 2 1 3 6 6 4 3 4 5 6 7 8
25 24 23 23 23 24 20 8 3 9 13 7 6 14 15 16 16 5 4 4 3 5 3 2 3 4 7 6 7 6 2 4 7 8 10 13 10 5 3 2 1 3 5 5 3 2 5 4 2 3 3 4 4 4 5 7 5 2 4 6 6 6 3 1 4 5 2 1 3 4 5 3 5 2 4 3 5 6 3 5 6 5 5 5 6 6 6 7
25 24 24 22 22 22 13 4 10 13 6 3 10 15 13 14 12 2 3 5 3 4 1 1 1 4 5 5 6 7 2 5 3 6 9 13 10 3 3 3 0 3 4 3 1 2 3 4 4 3 4 5 4 3 6 8 7 3 4 5 8 6 4 3 5 4 1 2 3 5 4 2 3 3 4 2 4 5 5 7 6 6 7 5 6 6 6 8
24 24 24 22 20 18 11 9 13 8 2 6 14 15 14 12 6 2 4 3 2 2 2 1 1 4 2 2 7 6 5 2 2 3 6 14 11 2 3 6 5 5 3 4 2 5 2 2 1 4 4 4 4 5 7 9 4 6 5 7 6 6 5 5 6 3 2 2 3 6 4 2 4 4 4 2 4 3 7 9 8 8 8 7 7 6 6 7
24 24 23 23 21 17 10 8 9 7 6 10 15 17 14 8 2 3 4 0 2 1 1 1 0 2 0 2 5 7 5 0 1 3 1 8 8 2 4 6 6 6 2 4 5 6 3 4 5 6 3 4 6 4 8 9 3 4 5 6 4 4 4 4 5 3 3 3 3 6 3 2 4 5 4 4 4 1 6 8 8 8 7 7 8 7 8 7
25 23 22 23 20 13 7 10 14 10 7 12 17 17 11 4 4 4 1 2 2 1 1 1 1 1 3 3 3 6 5 2 1 1 4 2 3 2 3 3 6 5 1 3 2 5 5 2 3 4 4 6 4 3 5 7 4 2 5 5 5 5 5 4 3 4 4 2 5 7 3 3 1 5 2 1 1 3 6 6 6 5 6 7 8 8 9 8
26 23 21 21 19 12 6 9 11 5 6 15 18 12 5 3 4 4 3 4 2 2 1 1 2 1 3 3 3 4 4 3 1 3 3 2 2 2 2 2 4 3 3 4 2 4 6 3 1 3 4 3 3 2 0 1 2 4 5 4 2 2 4 4 4 4 4 2 6 6 3 4 2 4 4 3 5 5 5 6 7 6 9 8 7 8 8 8
27 24 21 20 19 15 12 9 7 6 11 16 13 6 4 2 0 2 4 4 2 2 2 1 3 3 1 3 3 4 4 3 2 3 4 3 4 4 3 4 4 2 2 3 2 3 3 2 2 5 3 2 5 2 2 5 5 5 5 5 3 1 3 1 3 1 2 3 3 3 2 1 3 5 5 6 6 5 4 4 3 4 8 9 8 7 7 6
28 25 22 19 17 19 20 16 12 12 12 10 6 4 6 3 3 5 4 2 1 2 2 2 5 6 3 2 2 3 1 3 5 3 3 3 4 6 3 2 5 4 1 4 1 1 2 5 5 4 3 0 5 5 2 2 2 4 4 4 3 2 2 1 3 1 2 3 2 3 2 1 3 4 4 6 6 4 3 3 3 3 2 6 8 7 7 6
30 26 23 19 18 20 22 18 13 10 8 4 3 5 4 3 4 4 3 3 3 3 4 3 7 9 3 3 3 2 0 3 4 4 3 3 3 4 4 2 3 3 3 3 2 3 2 3 3 2 1 1 2 4 5 5 3 3 4 5 5 4 4 3 3 3 3 2 2 4 1 2 2 3 4 6 5 2 7 8 8 8 6 5 6 6 7 7
30 25 22 19 19 20 18 16 13 8 3 2 5 4 3 4 3 2 3 3 2 3 5 5 4 4 4 3 2 1 3 3 2 4 3 3 4 4 4 4 4 3 4 3 2 1 4 3 6 4 2 2 1 1 4 6 2 2 2 5 3 4 5 2 2 5 4 1 1 2 1 2 3 3 5 4 3 6 9 9 11 10 8 8 7 6 6 6
30 24 18 14 16 17 13 11 12 13 8 5 4 2 4 4 3 3 2 2 1 2 6 7 2 1 3 2 3 4 0 2 0 1 2 2 3 4 3 4 5 6 5 5 3 1 3 4 6 4 2 2 1 2 3 4 1 1 2 3 4 4 7 5 1 1 3 3 2 1 2 1 1 3 6 5 6 7 8 9 10 9 9 10 8 7 7 7
28 21 11 9 13 14 11 10 17 18 8 6 4 5 4 3 4 3 1 2 1 2 4 3 2 0 2 1 1 4 3 1 1 0 2 1 1 2 2 3 3 7 7 4 2 3 4 2 6 2 1 1 1 2 5 4 3 3 2 4 2 3 5 5 2 3 4 2 3 2 3 2 2 1 5 6 4 4 6 7 7 8 10 10 7 5 8 9
22 14 7 9 14 9 9 14 21 16 6 4 3 3 3 3 3 2 2 4 2 3 3 1 3 1 1 2 2 1 2 2 2 1 1 1 2 2 2 3 2 5 6 5 2 1 4 1 7 2 2 4 4 5 5 5 2 3 2 2 2 3 1 1 2 2 1 2 3 3 0 3 3 2 3 2 3 2 3 5 6 6 7 8 7 4 7 10
12 6 3 12 17 4 14 20 19 10 5 4 4 3 3 3 4 2 2 3 1 1 1 4 3 1 0 2 3 2 2 2 2 0 0 1 3 1 1 3 1 1 1 5 5 0 3 3 4 4 2 3 6 5 2 5 5 3 3 3 2 3 4 2 2 3 3 3 2 2 2 1 4 4 4 5 6 5 5 5 5 5 5 5 5 5 6 8
4 1 2 18 18 7 22 20 11 6 3 4 3 3 2 2 3 3 3 2 1 2 3 3 3 2 2 2 3 3 4 4 3 3 2 2 2 2 2 4 1 3 3 5 5 1 3 4 3 5 4 3 2 1 4 4 1 3 4 4 3 2 2 2 1 1 3 4 3 1 0 4 5 3 5 6 6 5 6 6 5 5 5 5 4 5 6 6
4 1 3 20 14 15 17 10 4 3 4 3 1 3 2 1 2 4 4 5 2 3 4 4 4 4 2 2 3 2 3 3 2 1 2 2 2 2 4 3 2 1 3 6 4 2 2 3 3 2 3 3 2 4 3 4 4 4 3 1 0 2 3 3 1 1 2 4 4 4 2 5 5 2 4 5 6 5 6 8 7 6 7 6 4 4 6 6
4 1 5 23 11 13 6 5 2 1 3 3 2 3 1 1 2 3 4 4 4 5 4 4 6 4 3 3 3 2 2 2 1 2 1 0 2 0 3 1 2 3 4 3 0 2 3 4 3 1 0 1 4 5 3 1 5 7 4 1 2 3 3 4 3 3 2 3 2 4 2 5 5 3 3 4 4 5 6 8 8 7 7 8 7 5 5 6
3 1 7 25 15 9 3 5 1 2 1 3 2 2 2 1 2 4 3 1 2 4 2 2 3 2 2 2 0 2 3 2 2 2 2 2 3 4 7 6 2 4 5 2 2 0 2 4 3 1 2 3 4 5 5 4 6 6 3 1 3 2 2 5 5 3 4 3 2 4 1 5 5 3 0 2 2 3 4 5 7 7 3 5 6 4 4 5
2 2 4 23 24 4 5 2 1 1 3 3 3 2 2 2 3 4 2 2 3 2 1 1 2 2 0 1 4 3 1 2 2 3 3 3 3 5 10 10 4 3 2 3 4 1 1 2 3 3 2 4 4 4 5 5 4 3 2 4 3 3 3 2 2 3 3 4 4 5 2 6 5 4 3 4 5 5 3 3 6 7 5 5 4 3 4 4
3 1 2 15 24 11 4 1 0 2 3 2 2 3 4 2 2 3 2 2 4 3 2 2 3 3 3 3 5 4 5 4 2 3 4 3 3 4 8 11 7 4 2 2 3 3 2 3 4 5 4 2 2 2 3 1 2 1 2 5 4 5 4 2 2 4 1 3 4 5 5 5 4 3 3 4 6 6 4 3 4 5 6 6 6 6 6 6
1 3 2 7 11 7 2 3 3 2 2 1 2 4 5 3 3 6 5 4 4 4 4 4 4 4 5 5 5 5 8 6 3 3 4 4 3 2 6 8 9 9 7 8 8 4 4 3 2 5 6 5 5 4 4 3 3 1 1 4 5 3 4 4 4 2 2 3 1 3 5 3 1 1 2 4 6 7 5 5 5 5 7 7 7 7 6 6
2 2 3 3 4 4 4 6 6 4 2 2 3 3 5 4 4 6 5 4 4 4 5 6 7 6 4 4 5 4 6 6 5 4 3 4 3 3 6 6 10 14 10 7 6 3 5 3 1 5 4 1 4 2 1 2 5 4 3 2 4 3 5 6 3 2 3 5 1 6 2 5 4 3 2 3 5 6 7 8 8 7 7 6 5 5 5 5
3 1 2 2 2 3 4 5 7 8 9 7 3 3 6 7 7 5 4 3 5 5 4 5 10 9 6 3 4 3 4 5 5 5 4 4 4 5 6 5 7 12 9 5 4 4 6 2 1 4 5 4 4 3 1 4 4 3 4 4 1 3 5 5 3 3 6 5 4 4 4 4 3 3 4 5 4 4 4 4 3 3 4 4 5 5 5 4
3 2 3 2 2 2 1 3 6 9 13 10 5 5 7 8 7 5 3 2 5 7 4 4 6 9 9 7 4 3 3 2 2 3 3 4 4 4 5 5 5 8 8 5 4 3 4 1 1 4 5 5 5 3 4 6 5 3 3 2 1 1 3 4 2 1 5 5 4 6 7 2 2 2 4 5 4 2 1 4 5 4 2 3 6 6 6 5
2 1 3 2 3 3 2 3 5 7 10 9 6 7 7 7 6 5 5 4 3 4 5 5 4 5 7 8 7 4 1 3 4 1 1 2 3 3 3 2 3 6 7 5 3 3 4 1 0 3 5 3 5 5 5 6 5 5 5 5 3 2 3 4 4 3 3 3 3 6 8 3 3 2 4 5 4 5 6 7 6 5 5 2 2 3 4 6
3 2 1 2 2 5 4 3 5 5 6 7 6 6 7 8 7 4 4 6 4 3 2 4 3 4 6 8 8 3 3 5 6 4 4 3 1 1 1 1 1 4 7 4 3 4 4 2 1 5 4 1 2 3 3 4 7 6 5 6 4 3 3 3 3 3 1 2 4 5 6 1 3 4 6 6 8 9 8 7 6 6 7 6 4 2 2 5
8 2 3 3 3 5 4 3 5 5 3 3 5 6 7 9 10 5 4 6 8 7 2 3 3 3 5 7 7 3 5 6 6 6 5 5 5 4 3 4 2 0 2 2 2 2 3 4 2 3 3 3 3 1 2 4 6 3 3 2 1 4 6 5 5 5 4 2 4 3 3 2 3 4 6 8 9 10 8 6 6 6 7 7 6 5 4 5
Wind_Direction
315 313 311 310 310 310 310 309 309 309 310 310 311 312 311 313 312 314 314 314 316 315 316 316 316 317 317 319 322 321 316 313 314 311 266 260 274 258 228 184 178 183 207 227 228 236 24 37 15 73 105 102 167 211 190 175 139 95 99 132 221 205 203 196 188 184 169 274 291 321 341 360 340 330 328 42 46 70 64 46 45 33 50 85 108 124 133 136
314 312 309 309 309 308 309 307 308 309 308 308 309 310 311 312 311 313 315 315 315 314 317 316 316 316 316 320 322 320 315 316 311 288 263 266 273 239 193 174 182 180 175 196 206 185 95 67 33 67 78 44 285 257 214 203 157 141 124 176 227 204 215 206 205 222 207 260 284 303 305 333 332 305 328 74 38 63 75 52 52 70 77 92 112 124 133 138
314 313 309 308 306 306 306 303 304 305 305 305 304 307 309 311 311 312 313 313 312 314 315 315 317 317 319 321 318 318 316 320 308 268 269 274 246 223 188 177 187 181 171 189 209 188 151 148 74 69 68 10 285 292 313 276 199 175 138 216 245 217 241 245 224 236 229 236 280 298 308 327 301 270 351 150 178 65 110 145 98 106 116 117 121 126 136 140
315 313 308 306 305 303 301 301 301 301 303 303 303 305 305 308 311 311 311 311 310 311 312 315 320 318 320 320 314 317 321 328 290 255 287 289 240 206 188 185 186 181 183 210 221 158 160 135 71 71 76 10 311 14 290 264 223 197 161 208 241 203 256 262 232 240 239 207 250 290 318 319 293 264 64 118 95 338 230 217 167 145 142 136 138 138 139 141
315 312 309 306 303 300 298 300 300 299 301 302 303 303 303 306 306 308 309 308 309 310 312 316 319 320 319 317 314 315 333 38 267 275 290 269 243 200 188 185 189 190 187 210 214 159 146 97 71 58 62 19 329 36 249 247 153 173 223 215 235 199 244 267 248 245 246 202 252 289 303 296 310 4 147 137 160 245 228 216 174 153 152 148 148 145 143 147
316 312 309 305 300 297 297 299 298 297 298 300 303 303 303 304 303 306 306 307 309 308 311 313 318 323 320 322 321 313 23 114 275 281 265 234 215 198 186 185 192 199 197 205 196 148 133 85 72 71 71 46 224 190 247 253 144 210 268 239 241 216 223 271 278 256 232 212 247 252 279 300 357 315 222 144 199 247 229 172 151 149 152 145 142 146 149 153
318 314 309 303 299 296 297 298 296 294 295 298 301 301 301 301 303 304 304 308 306 305 307 310 320 325 327 336 336 33 86 262 275 278 253 228 203 190 185 190 193 196 202 199 167 132 124 98 96 123 97 309 216 208 244 252 169 202 257 264 253 231 229 259 269 264 227 211 239 227 335 311 271 273 259 88 289 284 85 115 128 136 139 137 140 146 149 151
321 315 309 305 301 297 296 295 293 292 294 298 300 301 301 300 302 300 301 302 300 304 306 310 325 327 333 355 33 3 303 253 275 282 245 219 206 189 182 190 194 197 197 198 179 153 136 119 148 146 115 256 192 206 241 246 235 208 231 260 264 251 246 256 263 265 244 228 250 297 300 259 233 231 40 4 358 73 100 112 123 129 131 139 144 146 149 151
327 318 311 308 303 298 294 292 291 292 295 297 298 301 303 306 307 306 303 300 298 298 300 309 318 323 338 4 45 336 273 248 277 266 229 217 217 195 184 189 194 195 191 197 186 165 168 155 183 184 186 233 197 232 232 163 269 217 218 255 278 273 262 262 264 256 243 229 210 179 239 251 241 136 31 317 90 97 109 116 126 133 136 144 146 148 154 155
332 324 316 310 304 298 293 287 287 291 294 294 295 300 306 312 308 307 307 304 303 295 295 306 305 319 338 356 80 278 289 301 264 231 231 230 220 193 189 192 190 191 183 185 184 171 170 172 182 176 181 241 228 246 174 152 221 219 226 264 260 267 271 265 264 251 228 221 198 186 230 262 264 152 196 271 130 119 116 119 133 137 141 147 148 154 157 160
337 330 321 313 307 301 294 288 288 290 291 291 293 298 305 309 304 303 304 299 298 294 292 299 307 321 348 50 117 223 287 322 262 235 248 237 223 205 201 199 193 191 181 172 191 192 192 181 152 119 178 266 266 273 248 190 222 263 275 298 281 287 289 259 263 258 187 222 203 171 230 286 328 182 193 176 148 138 129 131 142 141 145 150 151 154 159 166
343 336 328 320 311 304 298 292 289 288 290 292 294 299 303 303 301 299 299 294 291 286 279 284 290 223 48 64 203 234 264 341 306 254 249 244 232 229 216 205 199 195 186 173 202 210 214 205 127 116 230 259 322 289 258 217 246 292 338 306 298 339 320 255 246 239 167 202 194 148 306 305 295 248 188 158 147 140 137 142 148 149 150 151 152 153 155 163
350 344 337 328 316 307 302 298 294 291 291 292 294 301 303 299 300 300 299 295 285 273 256 250 244 205 56 271 240 253 265 286 297 261 244 240 232 232 211 204 203 201 198 197 217 222 224 220 166 185 225 152 260 261 315 348 345 322 34 140 305 355 325 266 219 267 149 205 186 140 287 276 268 251 179 152 146 142 146 153 155 154 150 149 153 152 150 156
357 353 347 337 326 315 307 301 298 293 292 295 299 304 303 300 298 296 293 286 277 264 239 211 212 132 104 259 269 291 283 264 260 244 227 213 214 207 194 198 204 205 208 221 235 238 236 226 190 215 240 173 235 276 354 1 5 335 351 57 354 353 292 287 282 320 313 239 174 131 234 252 248 222 180 160 155 152 158 162 161 160 151 148 152 151 150 149
360 358 355 347 335 323 313 304 299 299 300 302 306 306 301 297 292 288 283 276 270 233 207 184 195 146 35 279 280 303 276 228 233 226 213 206 200 186 194 200 212 215 220 234 243 254 267 241 196 206 255 233 43 15 354 349 355 6 6 331 332 243 279 299 283 200 216 248 168 138 212 266 219 205 186 166 163 159 162 165 163 159 149 148 149 143 142 133
359 359 359 354 342 328 318 312 306 307 311 310 312 310 303 297 289 280 269 264 252 188 179 173 203 178 323 282 286 303 227 209 230 216 206 211 201 193 200 201 222 231 235 247 252 264 275 250 208 176 240 341 58 74 32 7 346 358 58 258 282 303 304 315 306 224 207 215 198 170 192 261 240 212 188 167 168 161 159 163 162 157 151 148 143 140 144 137
358 357 357 357 351 336 322 319 316 316 321 322 317 310 301 294 278 267 274 245 177 182 173 161 272 177 261 276 291 305 244 213 223 203 201 212 210 206 193 185 233 245 251 264 262 267 269 228 246 345 33 26 76 94 52 1 316 319 13 326 262 262 287 307 306 287 229 177 211 220 191 242 297 225 183 167 165 161 163 167 163 153 143 138 138 149 154 153
356 355 355 356 354 346 331 320 319 324 333 334 322 310 298 271 243 247 148 133 110 127 177 268 332 175 268 277 280 303 306 266 221 195 198 207 214 220 208 177 178 89 356 308 283 269 279 331 49 34 1 9 45 84 114 224 208 237 285 336 290 279 262 269 277 300 321 192 183 188 209 284 334 103 148 144 145 155 170 163 153 140 138 146 154 160 165 166
352 353 352 352 353 351 341 326 324 328 335 339 329 321 313 210 174 128 133 136 116 117 242 226 180 171 265 267 270 287 310 308 234 195 199 205 213 225 224 192 108 103 82 332 308 303 139 18 37 81 293 279 208 146 180 208 175 189 218 191 242 274 273 261 260 280 305 98 134 175 189 194 82 119 135 137 123 111 114 130 138 148 153 162 168 170 174 174
350 350 349 349 350 350 346 336 329 327 330 337 334 332 356 78 41 41 159 188 205 224 250 211 187 232 282 273 278 298 315 313 237 197 200 202 195 198 216 83 65 83 123 177 241 306 113 130 243 214 221 225 213 190 197 200 158 170 184 191 240 258 278 277 278 298 5 94 8 198 156 154 160 161 156 141 116 117 136 147 160 171 173 177 177 178 178 173
347 347 346 346 346 347 347 339 330 322 324 331 330 330 194 168 353 301 247 238 233 227 243 229 200 222 255 257 269 8 346 320 280 237 205 196 168 147 213 133 112 227 244 177 186 340 86 158 231 222 220 219 190 176 202 204 150 149 172 207 272 260 267 281 280 308 360 90 335 20 114 139 176 188 180 146 146 163 164 165 176 182 181 184 181 177 175 157
345 345 343 342 341 342 343 338 330 319 322 329 319 241 225 275 288 277 277 285 258 221 228 237 222 237 251 258 267 267 112 269 303 297 206 177 153 163 204 129 146 213 247 115 111 333 30 240 245 233 209 190 150 144 157 168 118 118 164 181 301 275 284 303 306 321 2 84 319 8 92 172 267 273 257 189 175 183 178 175 176 177 177 183 184 177 171 151
344 342 340 339 336 336 337 334 324 314 321 328 288 248 300 327 318 286 261 302 281 221 213 226 222 241 249 260 249 184 165 200 258 287 192 162 164 179 163 140 166 194 130 128 157 165 286 251 239 201 148 164 225 161 133 58 46 162 168 113 281 287 348 314 312 327 349 41 106 100 80 307 312 324 274 253 224 142 177 179 167 176 185 188 188 179 171 162
342 341 339 335 333 332 333 329 317 310 332 318 290 294 332 340 339 314 239 271 289 265 224 209 199 218 231 244 195 164 173 191 196 262 180 160 163 159 163 158 144 191 217 157 149 167 244 250 222 127 131 159 211 206 151 179 272 260 199 148 199 259 225 234 295 328 347 8 50 82 50 331 340 8 253 279 351 57 144 175 171 198 208 179 182 182 175 169
341 340 336 334 332 329 330 326 311 336 334 310 297 329 340 337 339 342 126 10 295 283 276 212 191 218 218 193 158 160 169 207 207 215 171 168 168 136 178 177 132 205 209 142 133 186 255 259 210 173 161 141 182 220 183 175 216 301 240 188 184 189 208 255 340 19 35 6 360 57 58 300 321 322 244 280 279 163 153 187 191 191 196 164 173 187 177 170
340 337 334 334 331 329 331 331 331 339 326 305 325 339 337 335 341 5 113 27 306 276 304 185 181 206 200 176 160 138 85 260 228 190 171 178 177 141 151 197 112 203 185 149 143 203 259 287 107 179 174 127 161 222 209 162 139 306 248 191 156 135 136 76 43 56 79 299 322 58 108 240 318 313 255 276 218 207 184 200 200 179 192 184 176 187 173 166
338 335 333 331 331 334 335 306 317 326 312 310 341 338 335 338 344 45 101 20 312 261 212 165 186 172 187 186 155 118 134 266 232 172 178 180 180 134 156 191 135 202 175 119 63 237 245 327 38 127 127 122 144 211 203 144 120 241 237 141 124 126 148 144 88 83 178 243 328 15 91 158 309 275 274 315 186 221 224 208 213 200 198 182 171 186 175 167
334 333 331 327 329 331 317 293 310 312 230 321 335 336 335 335 333 104 80 30 284 263 168 223 246 163 198 175 147 153 208 240 92 223 199 172 175 112 172 203 179 195 196 122 207 261 235 301 243 157 120 137 183 205 181 139 128 239 207 135 134 154 163 139 102 89 9 30 321 328 30 105 279 273 302 22 125 223 249 225 216 208 198 176 167 175 170 167
332 330 329 325 323 324 312 286 288 279 275 318 333 332 330 331 354 80 78 74 271 312 144 228 250 181 316 102 167 200 225 15 154 242 107 158 184 122 172 202 157 174 243 123 192 256 248 220 195 156 141 202 217 207 163 147 172 229 158 119 77 80 94 85 100 107 40 53 232 284 336 117 274 292 332 18 82 232 263 255 238 213 190 166 161 166 168 163
330 327 326 323 320 323 319 284 278 280 300 324 329 328 330 2 57 69 127 251 269 274 158 140 278 157 107 122 209 223 218 267 240 146 53 133 207 52 131 146 104 138 296 32 187 254 294 277 168 147 184 207 196 165 158 163 176 127 102 82 43 35 42 45 54 89 69 4 248 261 275 118 253 288 303 347 310 276 259 276 274 221 168 159 166 167 167 162
328 325 323 317 311 309 301 286 284 291 336 329 326 329 350 43 66 101 204 250 268 292 2 358 293 21 114 162 226 227 204 245 289 102 83 122 144 52 76 91 71 75 6 345 291 297 336 357 188 231 213 167 111 110 123 41 78 86 80 79 82 347 16 28 354 45 88 259 254 259 295 92 142 267 277 275 294 289 241 244 257 208 164 159 167 164 164 160
327 323 316 307 301 285 258 256 276 297 316 321 326 353 66 67 36 179 238 291 314 309 340 292 309 347 271 223 227 222 188 203 236 141 133 146 168 184 182 177 167 67 347 264 276 333 327 242 279 303 268 125 102 140 318 4 35 81 84 73 92 2 7 7 312 7 153 235 247 260 293 117 203 245 280 309 317 309 259 222 240 212 166 153 154 157 154 143
326 322 313 301 291 274 263 267 275 283 298 313 337 39 81 104 224 219 247 297 272 301 326 283 314 330 275 226 250 244 186 211 227 189 144 134 162 204 234 186 152 128 199 205 189 10 304 308 329 337 309 35 124 150 216 337 58 121 129 113 121 103 67 271 270 295 248 251 253 262 243 224 281 270 297 316 303 310 11 58 56 29 119 138 138 140 132 121
325 321 313 300 284 273 270 272 268 264 280 311 39 63 95 147 235 234 245 259 252 307 347 325 321 332 317 208 225 207 135 257 212 165 142 116 137 212 248 250 160 129 119 153 174 149 130 314 295 187 260 299 145 169 171 149 131 174 165 131 139 152 144 204 226 189 225 247 265 281 252 153 216 270 297 296 289 24 58 57 57 47 35 72 93 101 109 108
325 320 313 299 281 275 269 261 250 229 209 75 70 85 151 202 248 237 227 249 271 331 334 327 328 329 306 276 280 217 179 239 209 136 145 152 166 195 202 211 199 142 119 151 222 142 127 231 255 250 244 148 123 228 148 111 71 250 152 106 139 187 149 131 180 173 176 157 295 286 238 195 222 289 307 300 342 43 64 63 61 58 42 53 66 67 79 83
325 323 316 294 280 279 267 244 214 187 160 98 91 171 200 213 219 195 226 259 349 344 334 338 16 135 286 303 337 337 202 197 337 113 174 168 178 197 208 218 192 165 152 156 201 155 113 246 274 309 330 125 160 220 122 100 120 226 152 158 208 176 122 104 140 94 79 105 258 256 154 304 342 327 324 354 28 32 55 72 76 78 64 53 48 47 59 56
327 329 315 289 300 292 263 219 179 167 143 94 139 205 216 221 209 195 292 352 346 355 26 6 338 223 275 282 317 335 333 281 325 290 232 282 239 204 228 269 200 184 179 140 191 198 138 247 288 357 74 289 258 115 68 62 112 121 194 204 185 90 93 101 110 22 42 137 268 315 148 171 130 192 319 354 32 31 52 77 89 97 94 84 70 70 84 81
324 327 298 304 327 304 231 184 160 148 104 98 167 230 209 219 237 199 356 4 343 352 45 187 249 226 212 250 239 280 322 287 314 338 276 291 257 190 174 265 228 193 190 129 109 233 122 202 290 302 170 299 348 69 46 351 17 125 189 189 107 98 116 89 127 127 100 181 277 329 273 191 182 217 286 287 211 167 85 83 83 85 96 105 114 117 102 96
323 329 316 346 346 288 176 161 149 119 71 142 189 246 202 229 275 271 322 337 299 261 258 218 228 284 290 213 207 171 120 231 249 250 134 245 239 196 145 230 213 81 181 126 127 249 92 135 269 287 248 320 6 52 58 311 327 12 28 22 38 126 156 167 145 148 151 166 225 314 354 246 225 215 208 223 226 193 145 111 88 76 69 86 114 107 82 85
338 7 355 1 2 166 158 146 132 87 110 170 189 219 223 252 271 270 246 243 224 222 242 227 219 261 265 236 226 178 146 188 205 190 202 209 216 232 237 227 163 42 44 85 110 95 56 115 213 288 325 29 27 113 171 193 287 18 28 13 357 30 120 145 84 84 131 139 175 174 347 268 255 212 188 204 212 188 154 127 103 85 70 61 73 89 90 96
8 67 331 3 18 163 152 121 113 94 143 172 185 202 243 268 251 289 253 208 211 239 236 234 239 249 243 254 266 235 163 176 175 153 204 187 142 203 246 216 158 135 74 58 68 117 95 126 170 285 7 63 220 244 215 191 157 115 92 38 123 135 120 123 110 313 106 125 163 156 173 264 261 220 204 196 180 172 154 136 127 123 122 116 100 104 117 123
28 101 319 359 12 183 153 60 175 96 118 174 219 195 217 253 223 287 271 222 215 224 226 233 235 236 226 226 239 211 111 98 43 64 82 102 104 332 305 329 108 115 107 86 205 182 131 104 109 144 112 165 247 286 337 99 107 94 88 112 138 126 104 122 178 229 119 108 139 120 127 263 263 248 220 197 177 172 162 149 142 144 144 137 135 139 137 142
42 226 314 358 5 188 139 38 234 353 79 218 267 218 197 237 231 253 263 278 247 221 224 238 215 176 187 216 193 75 72 48 11 40 67 29 12 345 333 337 33 78 88 126 220 200 87 88 86 300 303 336 324 329 2 41 68 63 30 29 76 70 113 147 178 180 139 150 138 96 122 256 277 309 205 134 118 126 144 148 140 135 123 120 130 144 139 139
352 237 286 358 9 73 129 43 277 322 302 294 343 323 291 266 245 256 252 345 337 286 257 332 352 30 32 109 77 53 32 67 35 19 56 52 347 331 344 350 2 65 86 175 184 154 74 119 105 80 13 6 1 342 350 3 31 61 341 335 22 64 76 115 137 80 108 186 158 126 200 250 279 340 43 96 102 104 111 138 141 142 147 146 142 145 139 136
343 28 248 349 7 35 106 75 12 260 287 331 30 349 338 315 303 342 54 67 2 2 57 352 347 14 5 40 70 31 16 63 74 14 34 25 329 329 353 2 19 49 50 70 92 103 120 128 117 118 136 152 164 220 236 282 359 25 343 344 13 50 50 63 100 75 108 196 140 139 197 245 297 8 75 112 116 110 110 130 145 156 161 164 164 165 167 163
17 26 327 330 360 24 50 7 356 272 265 68 66 14 356 328 335 8 45 62 16 31 58 10 353 27 14 26 67 37 10 21 44 51 35 351 319 325 347 7 28 22 21 46 48 67 105 76 88 128 147 178 179 196 213 158 100 96 4 1 1 16 56 85 91 81 171 154 131 224 201 177 228 221 158 164 149 141 150 157 163 179 179 179 177 169 166 162
78 25 359 337 348 3 9 2 353 343 3 56 71 23 358 2 12 6 16 30 10 26 58 27 19 36 10 14 78 54 355 1 21 38 19 333 303 305 335 23 34 8 1 29 28 53 96 53 40 105 89 142 153 143 279 117 110 137 142 50 359 4 62 84 108 169 139 118 226 266 209 143 195 246 260 236 195 167 170 174 178 186 184 177 164 154 148 144
55 72 341 359 8 4 10 350 340 4 26 32 57 43 13 28 42 13 342 6 17 21 56 32 19 27 18 17 100 74 1 16 20 3 350 346 337 333 343 11 27 10 8 17 11 73 107 87 116 99 58 39 64 65 89 101 88 103 125 118 74 50 84 114 165 177 135 137 210 218 122 136 220 295 321 291 265 221 196 192 188 164 143 134 126 132 137 132
47 63 319 354 63 48 23 322 332 16 28 20 24 33 20 28 38 18 337 1 19 16 50 65 19 17 26 35 85 83 20 56 50 342 339 353 342 355 6 352 350 6 19 17 5 78 105 61 55 100 79 45 26 28 91 100 89 70 69 74 67 63 102 121 123 120 118 131 178 141 103 72 275 296 319 314 298 240 67 20 10 23 50 137 140 137 131 119
50 69 322 360 48 19 8 355 6 34 27 13 17 18 11 18 22 11 15 45 54 6 28 82 64 33 40 43 67 94 123 137 128 288 310 19 350 360 27 350 318 346 3 14 354 27 85 115 290 83 83 27 358 21 63 89 109 97 44 11 20 69 55 50 40 22 60 95 144 118 94 41 336 15 6 358 28 66 56 31 17 9 353 345 138 142 136 125
351 254 353 70 44 3 357 3 30 56 29 6 5 359 1 7 359 1 34 40 63 58 57 121 98 43 44 46 55 85 199 169 163 211 207 174 239 274 318 296 336 354 353 1 346 359 66 120 38 65 91 255 324 50 69 75 80 72 29 2 17 82 85 51 45 19 10 161 148 110 105 105 320 13 37 38 49 59 50 27 20 16 6 7 9 7 80 108
355 317 33 87 80 7 354 8 33 59 57 353 336 343 356 360 357 17 71 35 30 39 52 152 121 58 44 32 19 321 246 204 204 227 207 193 225 236 241 254 227 140 338 353 358 358 80 124 136 92 120 245 289 17 78 64 57 20 301 304 5 111 111 84 43 12 359 113 141 146 169 239 322 12 52 56 52 55 47 29 24 20 21 28 26 26 62 94